www.pogodaiklimat.ru

Погода и климат >> Архив погоды >> Россия >> Чукотка >> Баимка


ПОГОДА в Баимке

  • Прогноз погоды в Баимке
  • Монитор погоды в Баимке

АРХИВ ПОГОДЫ в Баимке

Время (UTC), дата Ветер
(напр.,м/с)
 
Видим.   Явления Облачность Т
(С)
Тd
(С)
f
(%)
Тe
(С)
Тes
(С)
Комфортность P
(гПа)
Po
(гПа)
Тmin
(С)
Tmax
(С)
R
(мм)
R24
(мм)
S
(см)
00 14.04 ЮВ 5
{6}
20 км ясно -3.6 -11.6 54 -10 -6 1015.0 978.9
03 14.04 ЮВ 5
{7}
20 км ясно -1.8 -11.6 47 -8 -4 1014.2 978.3
06 14.04 ЮВ 4
{7}
20 км ясно -1.6 -12.4 44 -7 -5 1014.2 978.4
09 14.04 ЮВ 3
{5}
20 км ясно -9.9 -16.4 59 -16 -16 1016.8 979.8 -0.6
12 14.04 ЮВ 3
{5}
20 км ясно -15.3 -20.4 65 -22 -22 1018.5 980.6
15 14.04 ЮВ 3
{5}
20 км ясно -15.9 -21.0 65 -23 -23 1018.7 980.7
18 14.04 ЮВ 3
{4}
20 км ясно -16.0 -21.1 65 -23 -23 1018.6 980.6
21 14.04 ЮВ 2
{4}
20 км ясно -6.5 -17.4 42 -10 -7 1016.5 980.0 -17.2 67
00 15.04 ЮВ 5
{6}
20 км ясно -1.9 -14.1 39 -8 -4 1015.4 979.5
03 15.04 ЮВ 5
{7}
20 км ясно +0.5 -12.2 38 -5 -1 1013.9 978.4
06 15.04 ЮВ 4
{7}
20 км ясно +1.1 -10.7 41 -3 -2 1013.4 977.9
09 15.04 ЮВ 2
{6}
20 км ясно -5.4 -14.7 48 -9 -9 1014.7 978.4 +1.3
12 15.04 Ю 3
{5}
20 км ясно -9.3 -16.8 54 -15 -15 1015.1 978.2
15 15.04 Ю 3
{5}
20 км 3/0
[Ci fib]
-10.7 -18.0 55 -17 -17 1014.9 977.7
18 15.04 ЮВ 4
{6}
20 км 1/0
[Ci fib]
-11.7 -18.9 55 -19 -19 1015.0 977.7
21 15.04 ЮВ 3
{5}
20 км 8/0
[Ci fib]
-4.3 -16.5 38 -9 -7 1013.9 977.7 -13.3 66
00 16.04 Ю 3
{6}
20 км 10/0
[Cs]
+0.4 -16.1 28 -3 +2 1013.4 977.9
03 16.04 ЮЗ 3
{6}
20 км 10/0
[Cs]
+0.4 -14.6 31 -3 +1 1013.3 977.8
06 16.04 ЮЗ 2
{7}
20 км 10/0
[Cs]
-1.1 -14.3 36 -4 -2 1013.7 977.9
09 16.04 В 2
{5}
20 км 10/0
[Ac lent Cs]
-5.7 -14.0 52 -10 -10 1015.6 979.1 +0.6
12 16.04 ЮВ 2
{5}
20 км 8/6 600 м
[Sc Ac lent]
-10.0 -15.3 65 -14 -14 1017.0 980.0
15 16.04 ЮВ 2
{4}
20 км 9/9 600 м
[Sc]
-6.4 -12.4 62 -10 -10 1016.7 980.2
18 16.04 Ю 1
{4}
20 км 8/8 600 м
[Sc]
-7.4 -13.3 63 -9 -9 1017.7 981.0
21 16.04 штиль 0
{5}
20 км 8/0
[Ac trans]
-2.0 -12.0 46 -2 -0 1018.3 982.3 -11.8 65
00 17.04 З 3
{7}
20 км ясно -0.7 -11.7 43 -5 +1 1019.1 983.2
03 17.04 СЗ 4
{8}
20 км 1/1 600 м
[Cu hum]
+0.4 -11.5 40 -4 -0 1019.7 984.0
06 17.04 З 2
{8}
20 км ясно +0.7 -12.7 36 -2 0 1020.8 985.1
09 17.04 ЮВ 1
{5}
20 км ясно -8.2 -15.1 58 -10 -10 1023.8 986.7 +0.8
12 17.04 ЮВ 3
{4}
20 км ясно -12.9 -17.2 70 -19 -19 1025.5 987.7
15 17.04 ЮВ 3
{5}
20 км ясно -15.8 -19.2 75 -23 -23 1025.7 987.4
18 17.04 Ю 2
{4}
20 км ясно -17.6 -20.2 80 -23 -23 1025.6 987.0
21 17.04 ЮВ 4
{7}
20 км ясно -4.8 -14.2 48 -11 -8 1022.4 985.8 -18.7 65
00 18.04 ЮВ 6
{9}
20 км 1/0
[Ci fib]
-2.2 -13.0 43 -9 -6 1020.1 984.0
03 18.04 ЮВ 6
{9}
20 км 1/0
[Ci fib]
+0.1 -12.0 40 -6 -3 1017.5 981.7
06 18.04 Ю 3
{9}
20 км 8/0
[Ci fib]
+0.3 -14.8 31 -3 -2 1015.4 979.9
09 18.04 Ю 3
{7}
20 км 10/0
[Ac lent Cs]
-3.1 -16.8 34 -7 -7 1015.1 979.0 +1.5
12 18.04 Ю 2
{7}
20 км 10/0
[Ac lent Cs]
-2.4 -13.9 41 -6 -6 1014.7 978.8
15 18.04 Ю 3
{7}
20 км 10/4 600 м
[Cb cap Ac und]
-2.0 -10.5 52 -6 -6 1014.8 978.9
18 18.04 ЮВ 1
{7}
20 км 8/6 600 м
[Cb cap Ac trans]
-3.5 -10.5 58 -5 -5 1014.9 978.8
21 18.04 Ю 3
{8}
20 км 8/8 600 м
[Sc]
-0.3 -9.1 51 -4 -4 1014.8 979.1 -5.7 65
00 19.04 З 4
{9}
20 км 6/6 600 м
[Sc]
+2.4 -8.0 46 -2 0 1014.7 979.4
03 19.04 СЗ 6
{11}
20 км 9/9 600 м
[Cb cap]
+2.0 -7.7 49 -3 -3 1016.1 980.6
06 19.04 СЗ 4
{10}
20 км 4/4 600 м
[Cb cap]
-2.0 -9.1 58 -7 -7 1018.8 982.8
09 19.04 СЗ 4
{8}
20 км 6/6 600 м
[Sc]
-5.6 -11.7 62 -12 -12 1022.3 985.7 +3.0
12 19.04 С 1
{8}
20 км 4/4 600 м
[Sc]
-12.7 -16.2 75 -15 -15 1025.2 987.4
15 19.04 штиль 0
{2}
20 км 10/10 600 м
[Cb cap]
-13.7 -16.4 80 -14 -14 1026.3 988.3
18 19.04 ЮВ 2
{4}
20 км 8/8 600 м
[Cb cap]
-14.3 -17.8 75 -19 -19 1026.5 988.5
21 19.04 В 1
{5}
20 км 3/0
[Ci fib]
-11.5 -16.8 65 -14 -10 1025.5 988.0 -15.5 63
00 20.04 В 2
{3}
20 км 1/0
[Ci fib]
-6.5 -14.1 55 -10 -3 1023.0 986.3
03 20.04 СВ 2
{4}
20 км 10/0
[Cs]
-5.5 -14.9 47 -9 -4 1021.2 984.6
06 20.04 СВ 1
{3}
20 км 10/0
[Ac trans Cs]
-5.7 -14.6 49 -7 -6 1020.3 983.6
09 20.04 СВ 1
{5}
20 км 10/4 600 м
[Sc Ac lent Cs]
-8.6 -16.3 54 -11 -11 1021.8 984.8 -5.1
12 20.04 ЮВ 1
{3}
20 км 1/0
[Ac lent]
-17.4 -19.3 85 -20 -20 1024.5 986.2
15 20.04 Ю 1
{3}
20 км ясно -23.0 -24.9 84 -26 -26 1026.8 987.5
18 20.04 ЮВ 2
{4}
20 км ясно -23.4 -25.9 80 -30 -30 1028.2 988.9
21 20.04 ЮВ 2
{4}
20 км ясно -13.8 -19.9 60 -19 -15 1027.7 989.6 -24.5 63

 

Местоположение метеостанции Баимка (Чукотка, Россия): широта 66.53 долгота 164.20 высота над уровнем моря 287 м.

В архиве по умолчанию представлена погода в Баимке за последнюю неделю. Архивные данные за месяц целиком и за предыдущие месяцы, начиная с января 2011 года, Вы можете получить, выбрав интересующий диапазон дат из раскрывающегося списка и нажав кнопку "Ввод!".


*Определитесь, кто Вы:
робот инопланетянин человек

Внимание! Время в таблицах - всемирное. Для получения местного времени необходимо прибавить поправку, которая равна 12 ч.

Смотрите также архив погоды в соседних городах и на ближайших метеорологических станциях:

Погода в Островном (Чукотка, Россия) (177 км)
Погода в Илирнее (Чукотка, Россия) (180 км)
Погода в Билибино (Чукотка, Россия) (194 км)
Погода в Омолоне (Чукотка, Россия) (222 км)
Погода в Константиновской (Чукотка, Россия) (224 км)
Погода в Анюйске (Чукотка, Россия) (233 км)
Погода в Верхне-Пенжино (Камчатский край, Россия) (257 км)
Погода в Черском (Якутия, Россия) (274 км)
Погода в Кегали (Магаданская область, Россия) (294 км)
Погода в Колымской (Якутия, Россия) (340 км)

Пояснения к столбцам:

Ветер - указаны скорость ветра в м/с - средняя за 10 мин, порывы в срок и между сроками (в фигурных скобках) и направление, откуда дует ветер: С - северный, СВ - северо-восточный, В - восточный, ЮВ - юго-восточный, Ю - южный, ЮЗ - юго-западный, З - западный, СЗ - северо-западный.
Видимость - горизонтальная дальность видимости в метрах или километрах. При видимости от 1 до 10 км при отсутствии осадков обычно наблюдается дымка, при ухудшении видимости до 1 км и менее - туман. В сухую погоду видимость может ухудшаться дымом, пылью или мглою.
Явления - указаны атмосферные явления, наблюдавшиеся в срок или в последний час перед сроком; фигурными скобками обозначены явления, наблюдавшиеся между сроками (за 1-3 часа до срока); квадратными скобками обозначены град или гололедные отложения с указанием их диаметра в мм.
Облачность - указаны через наклонную черту общая и нижняя облачность в баллах и высота нижней границы облаков в метрах; квадратными скобками обозначены формы облаков: Ci - перистые, Cs - перисто-слоистые, Cc - перисто-кучевые, Ac - высококучевые, As - высокослоистые, Sc - слоисто-кучевые, Ns - слоисто-дождевые, Cu - кучевые, Cb - кучево-дождевые. Подробнее классификацию облаков см. в Атласе облаков (PDF).
T - Температура воздуха - температура, измеренная на высоте 2 м над землей.
Td - Температура точки росы - температура, при понижении до которой содержащийся в воздухе водяной пар достигнет насыщения.
f - Относительная влажность воздуха - влажноcть воздуха, измеренная на высоте 2 м над землей.
Te - Эффективная температура - температура, которую ощущает одетый по сезону человек в тени. Характеристика душности погоды. При расчете учитывается влияние влажности воздуха и скорости ветра на теплоощущения человека.
Tes - Эффективная температура на солнце - температура, которую ощущает человек, с поправкой на солнечный нагрев. Характеристика знойности погоды. Зависит от высоты солнца над горизонтом, облачности и скорости ветра. Ночью, в пасмурную погоду, а также при ветре 12 м/с и более поправка равна нулю.
P - Атмосферное давление - приведенное к уровню моря атмосферное давление.
Po - Атмосферное давление - измеренное на уровне метеостанции атмосферное давление.
Tmin - Минимальная температура - минимум температуры воздуха на высоте 2 м над землей.
Tmax - Максимальная температура - максимум температуры воздуха на высоте 2 м над землей.
R - Количество осадков - Количество выпавших осадков за период времени, мм. При наведении курсора мыши на число - период времени, за который выпало указанное количество осадков.
R24 - Количество осадков - Количество выпавших осадков за 24 часа, мм.
S - Снежный покров - Высота снежного покрова, см. При наведении курсора мыши на число - состояние снежного покрова и степень покрытия местности в баллах.